SCP
0 0 0 0 0 0 0 0 0 0 0 0 0 0 0 0 0 0 0 1 1 1 1 2 2 1 1 1 1 1 2 2 3 3 3 3 2 2 1 1 1 1 1 1 1 1 1 1 1
0 0 0 0 0 0 0 0 0 0 0 0 0 0 0 0 0 0 1 1 1 1 1 2 2 2 1 1 1 1 1 2 2 3 3 3 2 2 1 1 1 1 1 1 1 1 1 1 1
0 0 0 0 0 0 0 0 0 0 0 0 0 0 0 0 0 1 1 1 1 1 2 2 2 2 1 1 1 1 1 1 2 2 2 2 2 2 1 1 1 1 1 1 1 1 1 1 1
0 0 0 0 0 0 0 0 0 0 0 0 0 1 1 1 1 1 1 1 2 2 2 2 2 2 2 1 2 2 2 2 2 2 2 2 2 1 1 1 1 1 1 1 1 1 1 1 0
0 0 0 0 0 0 0 0 0 0 0 0 1 1 1 1 1 1 1 2 2 2 2 2 2 2 2 2 2 2 2 2 2 2 1 1 1 1 1 1 1 1 1 1 1 1 1 1 1
0 0 0 0 0 0 0 0 0 0 0 0 1 1 1 2 2 2 2 2 2 2 2 2 2 2 2 2 2 2 3 2 2 2 2 2 1 1 1 1 1 1 1 1 1 1 1 1 1
0 0 0 0 0 0 0 0 0 0 0 1 1 1 2 2 2 3 3 3 3 3 2 2 2 2 3 3 3 3 3 3 2 2 2 2 1 1 1 1 2 1 1 1 1 1 1 1 1
0 0 0 0 0 0 0 0 0 1 1 1 1 1 2 3 3 4 4 3 3 2 3 2 2 2 3 3 3 3 3 3 3 2 2 2 2 1 1 1 1 1 1 1 1 1 1 1 1
0 0 0 0 0 0 0 0 0 0 1 1 2 2 3 4 4 4 4 3 3 3 3 3 3 3 3 3 3 4 3 3 3 3 2 2 2 2 1 1 1 1 1 1 1 1 1 1 1
0 0 0 0 0 0 0 0 0 0 1 1 2 3 5 6 6 5 4 3 3 3 4 4 4 3 3 3 3 4 4 4 3 3 3 3 2 2 2 2 1 1 1 1 1 1 1 1 1
0 0 0 0 0 0 0 0 1 1 1 1 1 3 5 7 7 6 5 4 3 4 4 4 4 4 4 4 4 4 5 4 3 3 3 3 2 2 2 2 2 1 1 1 1 1 1 1 1
0 0 0 0 0 0 0 1 1 1 1 1 2 3 4 6 6 6 5 4 4 4 4 4 4 4 4 4 4 4 4 4 4 3 3 3 3 3 3 2 2 1 1 1 1 1 1 1 1
0 0 0 0 0 0 1 2 2 2 2 3 3 4 4 5 5 5 4 4 4 4 3 4 4 4 4 4 4 4 5 5 4 3 3 3 3 3 3 3 2 2 1 1 1 1 1 1 1
0 0 0 0 0 0 2 2 2 2 3 4 5 5 4 4 5 4 4 4 4 4 4 4 4 4 4 4 5 5 5 5 5 4 3 3 3 3 3 3 2 2 2 1 1 1 1 1 1
0 0 0 0 0 1 2 2 2 2 3 4 5 5 4 4 4 4 4 4 4 4 4 5 5 5 5 5 5 5 6 6 6 5 4 3 2 2 2 3 2 2 2 1 1 1 1 1 1
0 0 0 0 0 0 1 2 2 3 3 4 4 4 4 3 3 3 4 4 5 4 5 6 7 6 6 6 6 6 6 6 6 5 4 3 2 2 2 2 2 2 2 2 2 2 1 1 1
0 0 0 0 0 1 1 2 2 3 3 3 3 3 3 3 3 3 5 6 6 5 5 6 6 6 6 6 6 6 6 5 5 4 4 3 2 2 2 2 2 2 2 2 3 2 1 1 1
0 0 0 0 0 1 1 2 2 2 2 2 2 3 3 3 3 4 5 6 5 5 5 5 5 5 5 6 6 6 6 5 4 4 3 3 2 2 2 2 2 2 2 2 2 1 1 1 1
0 0 0 0 0 1 1 1 1 1 1 1 2 2 2 2 3 3 4 5 5 4 4 4 4 4 4 5 5 6 6 5 4 3 3 3 2 2 2 2 2 2 2 1 1 1 1 1 1
0 0 0 0 0 1 1 1 1 1 1 1 1 1 2 2 3 3 3 3 4 4 3 3 3 3 3 4 4 5 5 4 3 3 3 3 2 2 2 2 2 2 2 2 1 1 1 1 1
0 0 0 0 0 0 1 1 1 1 1 1 1 1 2 2 2 2 2 2 3 3 2 2 2 3 3 3 3 4 4 3 3 3 3 3 2 2 2 2 2 2 2 2 2 1 1 1 1
0 0 0 0 0 0 0 0 0 1 1 1 1 1 1 1 1 1 1 1 1 2 1 1 2 2 2 2 3 3 3 3 2 2 3 3 3 2 2 1 2 2 2 2 2 2 2 1 1
0 0 0 0 0 0 0 0 0 1 1 1 2 1 1 1 1 1 1 1 1 1 1 1 1 1 1 1 2 3 3 2 2 2 2 3 2 2 1 1 1 2 2 2 2 2 2 2 1
0 0 0 0 0 0 0 0 0 0 1 2 2 1 1 1 1 1 1 1 0 0 0 1 1 1 1 1 2 2 2 2 1 2 2 2 2 1 1 0 0 1 1 1 1 1 1 1 1
0 0 0 0 0 0 0 0 0 0 1 1 1 1 1 1 0 0 0 0 0 0 0 0 0 0 1 1 1 2 2 2 1 1 1 1 1 0 0 0 0 0 0 1 1 1 1 1 1
0 0 0 0 0 0 0 0 0 0 1 1 1 1 1 0 0 0 0 0 0 0 0 0 0 0 0 1 1 1 1 1 1 1 0 0 0 0 0 0 0 0 0 0 0 0 0 0 0
0 0 0 0 0 0 0 0 0 1 1 1 1 1 1 0 0 0 0 0 0 0 0 0 0 0 0 0 1 1 1 1 0 0 0 0 0 0 0 0 0 0 0 0 0 0 0 0 0
0 0 0 0 0 0 0 0 0 1 1 1 1 1 0 0 0 0 0 0 0 0 0 0 0 0 0 0 0 0 0 0 0 0 0 0 0 0 0 0 0 0 0 0 0 0 0 0 0
0 0 0 0 0 0 0 0 0 1 1 1 1 1 0 0 0 0 0 0 0 0 0 0 0 0 0 0 0 0 0 0 0 0 0 0 0 0 0 0 0 0 0 0 0 0 0 0 0
0 0 0 0 0 0 0 0 0 0 1 1 1 1 0 0 0 0 0 0 0 0 0 0 0 0 0 0 0 0 0 0 0 0 0 0 0 0 0 0 0 0 0 0 0 0 0 0 0
Wind_Speed
3 0 3 3 6 5 3 6 4 4 4 2 1 4 7 7 6 5 1 11 14 15 14 17 18 19 18 17 16 15 15 15 15 16 16 16 16 16 15 15 14 13 13 13 13 13 13 14 14
1 2 4 5 5 0 6 5 5 4 3 4 3 2 4 3 2 3 5 9 15 16 14 15 19 19 19 18 17 17 16 16 15 15 15 15 15 15 15 15 14 13 13 13 13 13 13 13 14
0 3 5 5 4 6 6 4 4 5 6 4 2 1 2 3 3 5 6 13 14 14 13 15 21 19 19 19 18 17 17 16 15 15 15 14 14 13 13 14 14 13 12 13 13 13 13 13 13
3 5 6 4 4 6 6 6 7 9 6 3 2 1 1 2 3 5 11 14 15 13 12 14 20 19 19 18 18 18 17 16 16 15 15 14 13 13 12 13 13 13 12 12 13 13 12 13 12
5 5 4 1 5 6 6 7 6 7 6 3 3 2 1 3 5 11 13 13 14 12 10 13 18 18 18 18 18 17 17 16 15 14 14 13 12 12 12 12 13 12 12 12 12 12 11 11 11
5 5 4 3 6 6 6 5 4 5 6 4 4 4 1 3 6 10 11 10 11 12 10 11 17 18 18 18 17 17 16 15 14 14 13 12 11 11 11 11 12 11 11 11 11 11 11 10 9
6 5 4 3 3 5 5 3 3 5 5 3 4 5 1 3 6 10 10 10 9 9 9 8 9 12 15 16 16 15 15 14 14 13 13 13 12 12 11 11 10 11 11 11 11 11 10 9 8
5 6 3 2 3 5 4 5 4 3 5 3 2 5 4 5 10 12 11 10 9 7 7 7 7 6 7 9 14 15 15 14 14 14 14 13 13 12 12 10 10 10 10 11 10 10 9 8 7
5 6 2 4 4 5 3 5 6 3 2 3 3 2 5 14 14 13 11 8 7 7 6 6 6 6 5 6 10 12 13 13 13 12 14 11 6 6 7 9 10 11 11 10 10 9 8 7 5
5 4 7 6 5 4 5 3 5 5 5 4 5 6 11 13 13 12 11 9 9 8 7 6 6 6 5 5 5 4 6 6 6 5 6 5 4 4 6 7 11 11 11 10 10 9 7 5 2
5 6 6 6 6 4 4 4 2 0 2 1 2 7 10 11 9 9 8 7 7 7 7 6 6 6 6 4 3 3 3 4 4 5 5 5 4 3 3 3 4 5 7 4 5 5 3 3 2
4 6 5 5 3 3 3 2 2 1 2 1 3 9 10 10 9 9 8 7 6 7 7 6 6 6 5 5 4 4 3 3 4 4 5 5 4 4 3 3 3 3 2 3 3 2 3 3 3
4 5 4 6 6 4 2 3 1 1 2 4 7 9 9 8 6 5 5 6 6 7 7 6 6 6 6 4 4 4 4 4 4 4 4 5 4 4 4 3 3 3 3 3 3 3 3 3 3
4 4 6 6 4 2 4 1 2 2 2 7 8 7 6 5 5 4 4 4 5 5 4 4 4 4 4 4 4 4 4 4 4 4 4 5 4 4 4 4 4 3 3 3 4 4 3 3 3
2 3 7 4 2 1 3 3 1 0 5 8 8 7 7 6 5 3 2 2 3 3 3 3 4 3 3 3 3 3 4 4 4 4 4 5 4 4 4 4 4 4 4 4 3 4 3 3 3
2 3 4 6 4 2 4 0 3 2 7 8 8 7 8 6 6 5 4 3 2 1 2 2 2 2 2 2 2 1 2 3 3 3 3 4 4 5 4 4 4 4 4 4 4 4 3 3 3
5 3 3 7 5 3 4 1 2 4 7 9 8 8 7 7 7 6 6 4 4 3 3 3 3 3 2 3 3 1 1 2 2 2 2 2 3 3 3 3 3 4 3 4 4 3 3 4 4
1 1 3 5 4 4 4 2 4 5 7 8 7 7 7 7 7 7 7 7 6 5 5 4 4 3 2 3 3 2 1 2 1 2 1 2 2 3 4 3 4 4 3 4 4 4 4 4 5
2 2 4 5 2 3 5 5 4 5 7 7 6 6 6 6 6 8 8 8 7 7 6 5 4 2 1 2 2 2 2 1 1 1 1 1 2 2 3 3 3 4 3 4 5 4 5 4 5
3 3 4 4 2 4 6 5 4 5 5 5 5 6 6 6 7 9 9 9 8 7 7 5 4 2 1 0 2 2 3 2 1 1 1 1 1 2 2 3 3 3 3 4 6 5 4 4 5
4 5 4 3 3 4 5 2 1 3 5 6 6 6 6 6 7 7 8 9 8 8 8 6 6 5 3 1 1 3 3 2 1 1 1 2 2 0 1 1 2 3 3 4 6 7 7 6 4
4 6 5 3 2 0 2 2 2 2 3 4 4 5 6 6 6 6 7 8 8 7 7 7 7 6 5 3 2 2 2 2 2 1 1 3 4 3 2 1 1 1 2 3 4 6 5 7 6
5 1 3 2 4 2 2 3 4 2 4 4 5 5 5 5 5 6 7 7 8 8 7 7 7 7 7 5 4 3 3 3 3 3 4 4 4 5 5 5 3 2 2 1 2 4 5 4 5
3 5 5 5 5 1 2 3 5 4 5 6 6 6 6 5 5 6 6 7 8 8 8 7 8 8 8 7 6 5 4 4 4 5 4 4 3 5 7 6 5 5 4 3 2 2 3 3 4
4 6 4 5 4 4 1 2 6 2 2 6 8 8 6 5 4 5 6 7 8 9 9 8 8 9 9 8 7 7 6 5 5 5 5 5 4 5 7 6 6 5 5 5 5 5 4 3 4
2 7 7 4 4 4 2 4 4 1 3 6 8 9 7 6 5 5 6 6 7 8 8 9 9 8 8 8 8 7 7 5 5 6 6 6 5 5 6 7 7 7 7 7 7 6 6 6 6
4 2 5 6 2 1 4 4 2 4 6 8 9 9 7 6 5 5 5 6 7 8 8 9 8 8 8 8 8 8 8 8 8 7 7 6 6 6 7 8 8 8 8 8 8 7 8 8 7
4 7 5 5 4 3 4 4 5 8 9 9 10 9 7 6 5 5 4 5 6 6 7 8 8 8 8 8 8 8 9 9 8 8 9 8 7 7 8 9 8 9 9 8 8 8 8 10 8
3 3 5 4 4 5 3 7 5 8 10 12 11 10 9 7 5 4 4 5 5 6 7 8 8 8 8 8 8 9 9 9 9 9 9 8 8 8 9 8 9 9 9 8 9 9 9 10 9
2 4 6 4 3 4 3 8 2 3 7 10 11 10 9 8 6 5 5 5 5 6 7 7 8 8 8 8 9 9 9 9 9 9 9 8 9 9 8 8 9 9 9 8 9 10 10 10 10
Wind_Direction
298 343 98 66 54 47 262 253 249 292 306 310 223 181 177 179 175 212 154 138 132 137 143 146 146 145 142 138 132 126 123 122 122 124 127 131 134 137 140 142 143 143 143 139 135 133 132 131 130
267 110 67 64 89 244 267 251 252 262 283 321 305 205 170 215 189 135 130 142 137 139 143 147 148 146 144 141 137 133 131 129 128 128 130 132 135 138 141 143 144 144 143 141 139 137 135 134 135
152 68 88 83 135 192 243 249 253 284 283 271 260 256 203 209 169 164 157 141 135 138 142 150 150 148 146 144 141 139 137 136 135 135 135 136 138 139 142 145 146 145 143 143 142 139 138 139 139
90 58 60 89 221 226 236 271 289 300 306 238 185 282 283 340 156 145 135 137 133 137 141 151 151 150 148 146 145 143 142 142 142 142 142 142 142 142 145 147 147 146 146 145 144 142 142 143 143
62 82 79 24 256 256 250 265 274 286 287 251 170 209 273 10 89 117 132 136 136 135 138 150 152 151 150 150 149 148 148 148 148 148 147 146 146 147 148 149 149 149 149 148 147 146 146 147 147
62 73 100 233 266 277 269 254 284 280 269 259 184 167 219 41 99 121 125 124 130 134 136 147 154 154 154 155 155 154 153 152 152 152 152 151 150 151 151 152 152 153 153 153 153 151 150 149 149
106 105 153 204 270 287 269 285 291 285 293 268 175 149 154 74 99 109 105 103 110 125 132 142 152 157 159 159 158 158 157 157 157 157 158 158 158 159 160 158 158 159 160 161 160 159 158 156 154
120 105 132 219 238 266 277 322 292 289 293 300 129 149 183 130 111 103 99 99 105 116 132 143 144 145 150 157 164 165 164 164 164 165 166 168 168 169 170 165 167 169 170 170 168 167 165 162 160
87 80 181 222 214 254 293 334 314 309 314 12 39 69 128 124 119 112 108 106 120 136 140 151 149 147 149 155 172 171 171 171 171 172 174 172 169 169 173 175 178 179 179 179 177 176 172 169 168
92 138 222 221 211 250 297 303 298 339 5 23 43 64 116 128 131 131 137 145 153 158 160 161 157 153 156 168 164 159 165 167 166 166 172 161 155 171 174 182 188 189 188 188 187 186 181 170 148
149 189 229 241 229 244 284 293 280 283 343 290 156 138 134 128 128 135 144 152 160 160 165 169 164 159 160 156 151 160 159 159 163 168 167 158 159 171 171 168 190 194 192 185 190 188 172 156 155
176 235 226 251 229 220 233 255 309 242 250 253 149 142 138 140 147 152 153 157 156 162 173 172 167 163 167 157 156 166 163 168 169 173 170 166 169 173 172 179 182 180 174 168 168 170 169 163 168
210 257 249 249 270 241 218 219 193 308 322 78 104 119 136 142 144 141 142 150 156 169 174 174 175 166 169 162 161 165 171 172 167 166 173 173 176 180 179 183 186 185 177 174 171 176 181 178 182
232 249 278 282 270 220 164 222 129 282 63 83 98 111 116 124 128 126 141 156 166 172 172 170 171 169 167 170 169 166 172 166 162 169 179 177 179 183 185 188 189 188 182 178 178 178 184 189 184
273 306 319 314 312 222 129 19 52 356 93 88 93 101 94 83 86 111 133 135 157 171 163 174 172 162 174 172 171 166 171 165 168 175 178 179 181 182 188 193 193 189 178 174 170 164 167 183 173
27 28 337 311 344 360 102 339 348 40 102 93 93 91 85 74 64 51 50 54 57 95 133 149 154 134 144 138 124 138 156 156 162 164 166 178 182 182 186 195 199 190 177 174 174 166 164 164 149
27 26 317 314 356 30 74 148 13 42 92 95 92 88 85 73 53 40 39 42 42 54 79 82 81 109 126 128 108 111 132 135 140 136 150 177 181 185 193 201 199 186 177 176 180 168 164 157 142
293 331 313 302 328 39 76 106 59 55 83 90 88 84 75 65 43 30 31 35 41 48 66 72 68 80 107 122 122 122 134 137 126 132 171 185 184 185 193 200 201 190 180 180 172 165 160 147 139
191 253 281 275 294 71 93 99 74 72 81 83 82 79 72 59 44 38 34 32 36 38 42 50 51 40 85 119 143 155 167 154 124 116 125 207 203 187 191 209 205 199 189 183 172 158 157 150 138
201 259 279 302 40 104 108 92 77 73 87 92 88 75 65 56 43 35 30 28 27 28 25 26 24 357 37 84 145 144 126 120 113 79 42 328 267 219 202 207 208 202 192 184 178 166 160 162 164
223 207 225 235 30 71 112 74 91 88 90 85 81 79 68 60 49 37 29 22 22 24 16 8 5 358 7 37 93 111 107 115 104 62 12 1 349 287 176 202 198 196 198 198 189 178 175 176 180
248 221 202 188 127 238 129 187 236 159 124 109 96 81 69 59 50 37 29 21 18 14 12 12 9 9 14 34 69 98 113 112 95 91 56 34 27 28 43 81 126 182 168 184 195 188 180 172 175
222 187 157 158 143 97 56 142 262 168 192 176 142 112 86 65 53 39 27 22 19 14 14 14 19 21 20 29 49 78 86 92 88 89 73 49 37 34 35 44 50 63 89 126 173 180 174 174 175
152 72 60 52 75 109 221 163 247 211 205 169 150 131 110 84 61 43 28 25 22 19 20 21 25 24 22 30 43 65 89 99 101 87 74 55 44 37 35 44 45 45 50 49 59 105 144 158 158
92 88 37 9 19 250 264 188 242 221 193 163 154 140 122 102 79 53 33 26 24 21 20 21 30 29 25 34 44 52 66 77 83 82 76 69 53 42 32 43 47 47 51 54 57 65 71 96 117
148 135 152 191 218 270 298 235 248 97 112 126 131 130 120 103 82 63 42 32 27 24 25 25 30 31 31 40 45 50 60 65 64 66 70 68 63 55 46 51 55 55 58 62 64 65 65 68 77
125 127 155 132 152 259 275 278 285 137 134 135 137 135 128 114 96 75 53 41 33 29 28 27 30 34 36 43 52 55 58 65 67 64 65 65 60 61 56 56 59 57 58 61 67 69 68 68 67
113 139 100 116 148 250 283 264 236 191 181 167 158 150 138 124 105 84 61 49 41 33 33 36 36 37 40 45 52 60 60 62 66 67 66 65 60 61 64 59 60 61 60 62 68 69 68 72 64
93 92 103 113 150 163 258 270 230 195 179 173 165 153 144 134 120 97 76 59 52 45 44 45 42 42 44 49 56 61 61 62 64 65 63 64 62 60 63 63 63 63 61 62 68 69 69 71 67
146 156 146 150 215 177 191 265 318 180 162 156 149 143 137 128 114 98 82 66 57 54 50 48 47 49 49 54 61 61 61 61 63 63 61 63 63 60 61 64 64 64 62 61 67 69 67 69 68